"Period start","avg(HW err(1)/warn(2) (#))","avg(Visibility (m))","avg(Weather code (#))","avg(Precip intensity (mm/h))","min(HW err(1)/warn(2) (#))","max(HW err(1)/warn(2) (#))","std(HW err(1)/warn(2) (#))","med(HW err(1)/warn(2) (#))","min(Visibility (m))","max(Visibility (m))","std(Visibility (m))","med(Visibility (m))","min(Weather code (#))","max(Weather code (#))","std(Weather code (#))","med(Weather code (#))","min(Precip intensity (mm/h))","max(Precip intensity (mm/h))","std(Precip intensity (mm/h))","med(Precip intensity (mm/h))"
2016-04-08 00:00:00,2,33794,0,0.00,2,2,0,2,22420,50000,8089,31416,0,0,0,0,0.00,0.00,0.00,0.00
2016-04-08 00:10:00,2,34892,0,0.00,1,2,0,2,22018,48544,9970,36672,0,0,0,0,0.00,0.00,0.00,0.00
2016-04-08 00:20:00,1,,,,1,1,0,1,,,,,,,,,,,,
2016-04-08 00:30:00,1,,,,1,1,0,1,,,,,,,,,,,,
2016-04-08 00:40:00,1,,,,1,1,0,1,,,,,,,,,,,,
2016-04-08 00:50:00,1,,,,1,1,0,1,,,,,,,,,,,,
2016-04-08 01:00:00,1,50000,,0.00,1,2,0,1,50000,50000,0,50000,,,,,0.00,0.00,0.00,0.00
2016-04-08 01:10:00,2,30403,0,0.00,2,2,0,2,20226,44841,8634,30850,0,0,0,0,0.00,0.00,0.00,0.00
2016-04-08 01:20:00,2,25828,0,0.00,2,2,0,2,21462,30912,3443,25354,0,0,0,0,0.00,0.00,0.00,0.00
2016-04-08 01:30:00,2,34199,0,0.00,2,2,0,2,24950,50000,8878,33603,0,0,0,0,0.00,0.00,0.00,0.00
2016-04-08 01:40:00,2,43558,0,0.00,2,2,0,2,26966,50000,7999,45544,0,0,0,0,0.00,0.00,0.00,0.00
2016-04-08 01:50:00,2,34829,0,0.00,2,2,0,2,20755,50000,9564,33577,0,0,0,0,0.00,0.00,0.00,0.00
2016-04-08 02:00:00,2,41542,0,0.00,2,2,0,2,29914,50000,7439,42496,0,0,0,0,0.00,0.00,0.00,0.00
2016-04-08 02:10:00,2,25541,0,0.00,2,2,0,2,14768,50000,9963,22245,0,0,0,0,0.00,0.00,0.00,0.00
2016-04-08 02:20:00,2,25187,0,0.00,2,2,0,2,20577,33460,3717,23844,0,0,0,0,0.00,0.00,0.00,0.00
2016-04-08 02:30:00,2,24240,0,0.00,2,2,0,2,14580,46135,10390,19878,0,0,0,0,0.00,0.00,0.00,0.00
2016-04-08 02:40:00,2,26254,0,0.00,2,2,0,2,16751,47412,7897,24943,0,0,0,0,0.00,0.00,0.00,0.00
2016-04-08 02:50:00,2,27206,0,0.00,2,2,0,2,19016,43834,8007,23494,0,0,0,0,0.00,0.00,0.00,0.00
2016-04-08 03:00:00,2,24785,0,0.00,2,2,0,2,16743,42821,7595,23866,0,0,0,0,0.00,0.00,0.00,0.00
2016-04-08 03:10:00,2,26974,0,0.00,2,2,0,2,19559,41762,5982,26127,0,0,0,0,0.00,0.00,0.00,0.00
2016-04-08 03:20:00,2,37368,0,0.00,2,2,0,2,27895,47170,6311,36290,0,0,0,0,0.00,0.00,0.00,0.00
2016-04-08 03:30:00,2,32794,0,0.00,2,2,0,2,23276,44324,6945,33126,0,0,0,0,0.00,0.00,0.00,0.00
2016-04-08 03:40:00,2,26810,0,0.00,2,2,0,2,17590,32680,4618,27195,0,0,0,0,0.00,0.00,0.00,0.00
2016-04-08 03:50:00,2,29887,0,0.00,2,2,0,2,20401,39744,5839,30324,0,0,0,0,0.00,0.00,0.00,0.00
2016-04-08 04:00:00,2,32593,0,0.00,2,2,0,2,23259,48214,7787,29336,0,0,0,0,0.00,0.00,0.00,0.00
2016-04-08 04:10:00,2,39837,0,0.00,2,2,0,2,31345,49336,5922,39702,0,0,0,0,0.00,0.00,0.00,0.00
2016-04-08 04:20:00,2,27719,0,0.00,2,2,0,2,18673,36964,5400,27130,0,0,0,0,0.00,0.00,0.00,0.00
2016-04-08 04:30:00,2,29613,0,0.00,2,2,0,2,21127,41575,6734,29044,0,0,0,0,0.00,0.00,0.00,0.00
2016-04-08 04:40:00,2,35928,0,0.00,2,2,0,2,20751,45451,6219,36820,0,0,0,0,0.00,0.00,0.00,0.00
2016-04-08 04:50:00,2,32517,0,0.00,2,2,0,2,25123,42884,5174,31974,0,0,0,0,0.00,0.00,0.00,0.00
2016-04-08 05:00:00,2,32965,0,0.00,2,2,0,2,26429,41060,4473,32060,0,0,0,0,0.00,0.00,0.00,0.00
2016-04-08 05:10:00,2,35479,0,0.00,2,2,0,2,30746,40481,2925,35642,0,0,0,0,0.00,0.00,0.00,0.00
2016-04-08 05:20:00,2,43972,0,0.00,2,2,0,2,33480,50000,5552,44584,0,0,0,0,0.00,0.00,0.00,0.00
2016-04-08 05:30:00,2,29874,0,0.00,2,2,0,2,19600,42510,6770,30236,0,0,0,0,0.00,0.00,0.00,0.00
2016-04-08 05:40:00,2,35382,0,0.00,2,2,0,2,26759,42549,5553,35536,0,0,0,0,0.00,0.00,0.00,0.00
2016-04-08 05:50:00,2,34056,0,0.00,2,2,0,2,18957,49987,11033,33996,0,0,0,0,0.00,0.00,0.00,0.00
2016-04-08 06:00:00,2,39567,0,0.00,2,2,0,2,35268,47070,3066,39318,0,0,0,0,0.00,0.00,0.00,0.00
2016-04-08 06:10:00,2,34939,0,0.00,2,2,0,2,22841,50000,8734,33967,0,0,0,0,0.00,0.00,0.00,0.00
2016-04-08 06:20:00,2,40985,0,0.00,2,2,0,2,24679,50000,8861,41933,0,0,0,0,0.00,0.00,0.00,0.00
2016-04-08 06:30:00,2,33910,0,0.00,2,2,0,2,27658,41886,4123,34462,0,0,0,0,0.00,0.00,0.00,0.00
2016-04-08 06:40:00,2,44476,0,0.00,2,2,0,2,35527,50000,4249,43912,0,0,0,0,0.00,0.00,0.00,0.00
2016-04-08 06:50:00,2,34780,0,0.00,2,2,0,2,23608,45965,6666,34528,0,0,0,0,0.00,0.00,0.00,0.00
2016-04-08 07:00:00,2,35628,0,0.00,2,2,0,2,24896,42339,5658,36835,0,0,0,0,0.00,0.00,0.00,0.00
2016-04-08 07:10:00,2,39511,0,0.00,2,2,0,2,27952,48242,5852,39008,0,0,0,0,0.00,0.00,0.00,0.00
2016-04-08 07:20:00,2,32380,0,0.00,2,2,0,2,24733,46335,7052,29228,0,0,0,0,0.00,0.00,0.00,0.00
2016-04-08 07:30:00,2,41421,0,0.00,2,2,0,2,28947,50000,7186,40767,0,0,0,0,0.00,0.00,0.00,0.00
2016-04-08 07:40:00,2,35824,0,0.00,2,2,0,2,27460,50000,6876,36058,0,0,0,0,0.00,0.00,0.00,0.00
2016-04-08 07:50:00,2,40640,0,0.00,2,2,0,2,34981,50000,5115,39540,0,0,0,0,0.00,0.00,0.00,0.00
2016-04-08 08:00:00,2,33132,0,0.00,2,2,0,2,28087,43072,4453,32786,0,0,0,0,0.00,0.00,0.00,0.00
2016-04-08 08:10:00,2,39313,0,0.00,2,2,0,2,27767,50000,6694,40085,0,0,0,0,0.00,0.00,0.00,0.00
2016-04-08 08:20:00,2,44208,0,0.00,2,2,0,2,36858,50000,5254,44184,0,0,0,0,0.00,0.00,0.00,0.00
2016-04-08 08:30:00,2,44330,0,0.00,2,2,0,2,34413,50000,5000,44833,0,0,0,0,0.00,0.00,0.00,0.00
2016-04-08 08:40:00,2,42894,0,0.00,2,2,0,2,34799,50000,5631,44970,0,0,0,0,0.00,0.00,0.00,0.00
2016-04-08 08:50:00,2,36067,0,0.00,2,2,0,2,24402,44160,5350,36446,0,0,0,0,0.00,0.00,0.00,0.00
2016-04-08 09:00:00,2,36936,0,0.00,2,2,0,2,29809,42834,3603,37723,0,0,0,0,0.00,0.00,0.00,0.00
2016-04-08 09:10:00,2,36386,0,0.00,2,2,0,2,28406,44714,5104,35772,0,0,0,0,0.00,0.00,0.00,0.00
2016-04-08 09:20:00,2,36074,0,0.00,2,2,0,2,24535,45520,7083,36990,0,0,0,0,0.00,0.00,0.00,0.00
2016-04-08 09:30:00,2,39141,0,0.00,2,2,0,2,32130,46833,4752,38691,0,0,0,0,0.00,0.00,0.00,0.00
2016-04-08 09:40:00,2,31931,0,0.00,2,2,0,2,25669,39012,3722,31499,0,0,0,0,0.00,0.00,0.00,0.00
2016-04-08 09:50:00,2,43642,0,0.00,2,2,0,2,38872,50000,3958,43348,0,0,0,0,0.00,0.00,0.00,0.00
2016-04-08 10:00:00,2,41854,0,0.00,2,2,0,2,30900,50000,4912,41286,0,0,0,0,0.00,0.00,0.00,0.00
2016-04-08 10:10:00,2,44609,0,0.00,2,2,0,2,38501,50000,4152,44876,0,0,0,0,0.00,0.00,0.00,0.00
2016-04-08 10:20:00,2,38447,0,0.00,2,2,0,2,29550,46866,4408,38332,0,0,0,0,0.00,0.00,0.00,0.00
2016-04-08 10:30:00,2,33601,0,0.00,2,2,0,2,28348,38452,3620,33390,0,0,0,0,0.00,0.00,0.00,0.00
2016-04-08 10:40:00,2,37591,0,0.00,2,2,0,2,32435,44023,4046,36496,0,0,0,0,0.00,0.00,0.00,0.00
2016-04-08 10:50:00,2,37685,0,0.00,2,2,0,2,33574,42091,2502,37050,0,0,0,0,0.00,0.00,0.00,0.00
2016-04-08 11:00:00,2,35740,0,0.00,2,2,0,2,31618,40962,2584,35572,0,0,0,0,0.00,0.00,0.00,0.00
2016-04-08 11:10:00,2,32390,0,0.00,2,2,0,2,26677,37693,2969,32768,0,0,0,0,0.00,0.00,0.00,0.00
2016-04-08 11:20:00,2,43036,0,0.00,2,2,0,2,31933,49634,5952,44170,0,0,0,0,0.00,0.00,0.00,0.00
2016-04-08 11:30:00,2,14760,0,0.00,2,2,0,2,11476,18389,2215,14866,0,0,0,0,0.00,0.00,0.00,0.00
2016-04-08 11:40:00,2,32088,0,0.00,2,2,0,2,17050,39735,7702,34751,0,0,0,0,0.00,0.00,0.00,0.00
2016-04-08 11:50:00,2,10552,0,0.00,2,2,0,2,7574,23081,4291,9187,0,0,0,0,0.00,0.00,0.00,0.00
2016-04-08 12:00:00,2,10631,9,0.00,2,2,0,2,8508,13008,1447,10710,0,10,3,10,0.00,0.00,0.00,0.00
2016-04-08 12:10:00,2,14649,4,0.00,2,2,0,2,12830,17836,1754,13806,0,10,5,0,0.00,0.00,0.00,0.00
2016-04-08 12:20:00,2,17767,0,0.00,2,2,0,2,15187,20027,1362,17593,0,0,0,0,0.00,0.00,0.00,0.00
2016-04-08 12:30:00,2,13566,0,0.00,2,2,0,2,11723,17355,1597,13251,0,0,0,0,0.00,0.00,0.00,0.00
2016-04-08 12:40:00,2,13493,0,0.00,2,2,0,2,11839,15991,1270,13244,0,0,0,0,0.00,0.00,0.00,0.00
2016-04-08 12:50:00,2,20793,0,0.00,2,2,0,2,13197,33926,5937,19860,0,0,0,0,0.00,0.00,0.00,0.00
2016-04-08 13:00:00,2,13586,0,0.00,2,2,0,2,12245,15909,1119,13333,0,0,0,0,0.00,0.00,0.00,0.00
2016-04-08 13:10:00,2,17614,0,0.00,2,2,0,2,15643,19610,1055,17511,0,0,0,0,0.00,0.00,0.00,0.00
2016-04-08 13:20:00,2,15236,0,0.00,1,2,0,2,0,20066,6882,17924,0,0,0,0,0.00,0.00,0.00,0.00
2016-04-08 13:30:00,1,,,,1,1,0,1,,,,,,,,,,,,
2016-04-08 13:40:00,1,,,,1,1,0,1,,,,,,,,,,,,
2016-04-08 13:50:00,1,,,,1,1,0,1,,,,,,,,,,,,
2016-04-08 14:00:00,1,,,,1,1,0,1,,,,,,,,,,,,
2016-04-08 14:10:00,1,,,,1,1,0,1,,,,,,,,,,,,
2016-04-08 14:20:00,1,,,,1,1,0,1,,,,,,,,,,,,
2016-04-08 14:30:00,1,,,,1,1,0,1,,,,,,,,,,,,
2016-04-08 14:40:00,1,,,,1,1,0,1,,,,,,,,,,,,
2016-04-08 14:50:00,1,,,,1,1,0,1,,,,,,,,,,,,
2016-04-08 15:00:00,1,0,,0.00,1,2,0,1,0,0,0,0,,,,,0.00,0.00,0.00,0.00
2016-04-08 15:10:00,1,0,,0.00,1,2,0,1,0,0,0,0,,,,,0.00,0.00,0.00,0.00
2016-04-08 15:20:00,1,24082,,0.00,1,2,0,1,0,48164,24082,24082,,,,,0.00,0.00,0.00,0.00
2016-04-08 15:30:00,1,0,,0.00,1,2,0,1,0,0,0,0,,,,,0.00,0.00,0.00,0.00
2016-04-08 15:40:00,2,49853,,0.00,1,2,0,2,49119,50000,328,50000,,,,,0.00,0.00,0.00,0.00
2016-04-08 15:50:00,2,50000,0,0.00,2,2,0,2,50000,50000,0,50000,0,0,0,0,0.00,0.00,0.00,0.00
2016-04-08 16:00:00,2,49902,0,0.00,2,2,0,2,49156,50000,252,50000,0,0,0,0,0.00,0.00,0.00,0.00
2016-04-08 16:10:00,1,50000,0,0.00,1,2,0,1,50000,50000,0,50000,0,0,0,0,0.00,0.00,0.00,0.00
2016-04-08 16:20:00,1,,,,1,1,0,1,,,,,,,,,,,,
2016-04-08 16:30:00,1,,,,1,1,0,1,,,,,,,,,,,,
2016-04-08 16:40:00,1,,,,1,1,0,1,,,,,,,,,,,,
2016-04-08 16:50:00,2,50000,0,0.00,1,2,0,2,50000,50000,0,50000,0,0,0,0,0.00,0.00,0.00,0.00
2016-04-08 17:00:00,2,50000,0,0.00,2,2,0,2,50000,50000,0,50000,0,0,0,0,0.00,0.00,0.00,0.00
2016-04-08 17:10:00,2,49548,0,0.00,2,2,0,2,48170,50000,650,50000,0,0,0,0,0.00,0.00,0.00,0.00
2016-04-08 17:20:00,2,49392,0,0.00,2,2,0,2,43923,50000,1823,50000,0,0,0,0,0.00,0.00,0.00,0.00
2016-04-08 17:30:00,2,49473,0,0.00,2,2,0,2,47842,50000,752,50000,0,0,0,0,0.00,0.00,0.00,0.00
2016-04-08 17:40:00,2,49696,0,0.00,2,2,0,2,47614,50000,721,50000,0,0,0,0,0.00,0.00,0.00,0.00
2016-04-08 17:50:00,2,41667,0,0.00,1,2,0,2,0,50000,18634,50000,0,0,0,0,0.00,0.00,0.00,0.00
2016-04-08 18:00:00,1,33333,,0.00,1,2,0,1,0,50000,23570,50000,,,,,0.00,0.00,0.00,0.00
2016-04-08 18:10:00,2,49542,0,0.00,2,2,0,2,45989,50000,1196,50000,0,0,0,0,0.00,0.00,0.00,0.00
2016-04-08 18:20:00,2,49911,0,0.00,2,2,0,2,49527,50000,178,50000,0,0,0,0,0.00,0.00,0.00,0.00
2016-04-08 18:30:00,2,49326,0,0.00,2,2,0,2,45621,50000,1320,50000,0,0,0,0,0.00,0.00,0.00,0.00
2016-04-08 18:40:00,2,49203,0,0.00,2,2,0,2,46086,50000,1275,50000,0,0,0,0,0.00,0.00,0.00,0.00
2016-04-08 18:50:00,2,49779,0,0.00,2,2,0,2,47793,50000,662,50000,0,0,0,0,0.00,0.00,0.00,0.00
2016-04-08 19:00:00,2,49987,0,0.00,2,2,0,2,49868,50000,40,50000,0,0,0,0,0.00,0.00,0.00,0.00
2016-04-08 19:10:00,2,47223,0,0.00,2,2,0,2,41328,50000,2925,47850,0,0,0,0,0.00,0.00,0.00,0.00
2016-04-08 19:20:00,2,49558,0,0.00,2,2,0,2,47637,50000,759,50000,0,0,0,0,0.00,0.00,0.00,0.00
2016-04-08 19:30:00,2,50000,0,0.00,2,2,0,2,50000,50000,0,50000,0,0,0,0,0.00,0.00,0.00,0.00
2016-04-08 19:40:00,2,48015,0,0.00,1,2,0,2,35034,50000,4911,50000,0,0,0,0,0.00,0.00,0.00,0.00
2016-04-08 19:50:00,1,,,,1,1,0,1,,,,,,,,,,,,
2016-04-08 20:00:00,1,,,,1,1,0,1,,,,,,,,,,,,
2016-04-08 20:10:00,1,,,,1,1,0,1,,,,,,,,,,,,
2016-04-08 20:20:00,1,,,,1,1,0,1,,,,,,,,,,,,
2016-04-08 20:30:00,1,,,,1,1,0,1,,,,,,,,,,,,
2016-04-08 20:40:00,1,,,,1,1,0,1,,,,,,,,,,,,
2016-04-08 20:50:00,1,,,,1,1,0,1,,,,,,,,,,,,
2016-04-08 21:00:00,1,,,,1,1,0,1,,,,,,,,,,,,
2016-04-08 21:10:00,1,,,,1,1,0,1,,,,,,,,,,,,
2016-04-08 21:20:00,1,0,,0.00,1,2,0,1,0,0,0,0,,,,,0.00,0.00,0.00,0.00
2016-04-08 21:30:00,1,0,,0.00,1,2,0,1,0,0,0,0,,,,,0.00,0.00,0.00,0.00
2016-04-08 21:40:00,2,41907,0,0.00,2,2,0,2,0,50000,14768,50000,0,0,0,0,0.00,0.00,0.00,0.00
2016-04-08 21:50:00,2,48204,0,0.00,1,2,0,2,43339,50000,2278,49409,0,0,0,0,0.00,0.00,0.00,0.00
2016-04-08 22:00:00,1,0,,0.00,1,2,0,1,0,0,0,0,,,,,0.00,0.00,0.00,0.00
2016-04-08 22:10:00,2,26892,,0.00,1,2,0,2,0,50000,20653,32659,,,,,0.00,0.00,0.00,0.00
2016-04-08 22:20:00,2,42353,0,0.00,2,2,0,2,34302,50000,5159,42713,0,0,0,0,0.00,0.00,0.00,0.00
2016-04-08 22:30:00,2,43653,0,0.00,2,2,0,2,32206,50000,5927,46342,0,0,0,0,0.00,0.00,0.00,0.00
2016-04-08 22:40:00,2,42222,0,0.00,2,2,0,2,24106,50000,7628,44457,0,0,0,0,0.00,0.00,0.00,0.00
2016-04-08 22:50:00,2,37042,0,0.00,2,2,0,2,0,50000,12989,39569,0,0,0,0,0.00,0.00,0.00,0.00
2016-04-08 23:00:00,1,,,,1,1,0,1,,,,,,,,,,,,
2016-04-08 23:10:00,1,,,,1,1,0,1,,,,,,,,,,,,
2016-04-08 23:20:00,1,,,,1,1,0,1,,,,,,,,,,,,
2016-04-08 23:30:00,2,27481,,0.00,1,2,0,2,0,48451,21024,34522,,,,,0.00,0.00,0.00,0.00
2016-04-08 23:40:00,2,33899,0,0.00,2,2,0,2,18680,46770,8360,34554,0,0,0,0,0.00,0.00,0.00,0.00
2016-04-08 23:50:00,2,34493,0,0.00,2,2,0,2,17444,50000,10431,36441,0,0,0,0,0.00,0.00,0.00,0.00
